FW6466 Weather Reports


time (UTC)temp
C
wind
direction
speed
KPH
gust
KPH
rain 1hr
cm
rain 24hr
cm
rain mn
cm
humidity
%
barometer
mb
20260508132016 10 195 3.2 14.5 0.00 0.00 0.00 55 1011.0
20260508131019 10 343 6.4 17.7 0.00 0.00 0.00 56 1011.2
20260508130016 10 290 4.8 22.5 0.00 0.03 0.00 58 1011.2
20260508125036 9 330 6.4 17.7 0.00 0.03 0.00 59 1011.2
20260508124017 8 331 6.4 17.7 0.00 0.03 0.00 61 1011.1
20260508123016 8 302 8.0 16.1 0.00 0.03 0.00 62 1011.1
20260508122036 8 317 6.4 20.9 0.00 0.03 0.00 65 1011.1
20260508121017 7 326 8.0 16.1 0.00 0.03 0.00 68 1011.2
20260508120016 6 314 6.4 14.5 0.00 0.03 0.00 69 1011.2
20260508115016 6 291 6.4 19.3 0.00 0.03 0.00 71 1011.1
20260508114017 6 329 6.4 16.1 0.00 0.03 0.00 71 1011.0
20260508113016 6 335 3.2 9.7 0.00 0.03 0.00 71 1011.0
20260508112016 6 329 3.2 11.3 0.00 0.03 0.00 71 1011.0
20260508111017 5 322 3.2 12.9 0.00 0.03 0.00 71 1011.0
20260508110056 5 329 4.8 14.5 0.00 0.03 0.00 71 1010.9
20260508105017 5 304 4.8 12.9 0.00 0.03 0.00 70 1010.7
20260508104015 5 311 4.8 11.3 0.00 0.03 0.00 69 1010.6
20260508103016 6 323 3.2 9.7 0.00 0.03 0.00 67 1010.6
20260508102037 6 270 4.8 12.9 0.00 0.03 0.00 67 1010.6
20260508101016 6 295 6.4 16.1 0.00 0.03 0.00 66 1010.5
20260508100037 6 299 6.4 22.5 0.00 0.03 0.00 63 1010.4
20260508095016 6 309 8.0 27.4 0.00 0.03 0.00 59 1010.2
20260508094017 6 313 6.4 17.7 0.00 0.03 0.00 57 1010.2
20260508093017 6 315 6.4 14.5 0.00 0.03 0.00 56 1010.0
20260508092017 6 310 4.8 22.5 0.00 0.03 0.00 55 1009.9
20260508091017 6 318 6.4 12.9 0.00 0.03 0.00 54 1009.9
20260508090016 6 317 6.4 12.9 0.00 0.03 0.00 54 1009.9
20260508085320 6 0 4.8 6.4 0.00 0.03 0.00 53 1009.8
20260508084016 6 328 6.4 16.1 0.00 0.03 0.00 53 1009.7
20260508083016 6 324 4.8 14.5 0.00 0.03 0.00 53 1009.6
20260508082017 6 321 4.8 14.5 0.00 0.03 0.00 53 1009.5
20260508081016 6 319 6.4 16.1 0.00 0.03 0.00 53 1009.4
20260508080017 6 318 6.4 11.3 0.00 0.03 0.00 53 1009.4
20260508075016 6 329 4.8 17.7 0.00 0.03 0.00 53 1009.3
20260508074016 6 318 3.2 16.1 0.00 0.03 0.00 53 1009.3
20260508073017 6 311 4.8 9.7 0.00 0.03 0.00 54 1009.3
20260508072016 6 331 4.8 12.9 0.00 0.03 0.00 53 1009.3
20260508071017 6 313 4.8 16.1 0.00 0.03 0.00 53 1009.2
20260508070017 6 320 3.2 11.3 0.00 0.03 0.00 54 1009.2
20260508065016 6 326 3.2 9.7 0.00 0.03 0.00 55 1009.1
20260508064322 5 315 1.6 4.8 0.00 0.03 0.00 58 1009.1
20260508063517 5 326 1.6 8.0 0.00 0.03 0.00 57 1009.2
20260508062839 5 0 1.6 4.8 0.00 0.03 0.00 55 1009.2
20260508062016 5 329 1.6 6.4 0.00 0.03 0.00 56 1009.3
20260508061017 5 336 1.6 12.9 0.00 0.03 0.00 55 1009.4
20260508060017 5 305 3.2 9.7 0.00 0.03 0.00 56 1009.4
20260508055016 5 292 1.6 8.0 0.00 0.03 0.00 56 1009.5
20260508054320 5 45 1.6 1.6 0.00 0.03 0.00 57 1009.5
20260508053517 5 227 1.6 8.0 0.00 0.03 0.00 57 1009.5
20260508052623 5 90 1.6 8.0 0.00 0.03 0.00 56 1009.4
20260508052017 5 224 1.6 4.8 0.00 0.03 0.00 57 1009.4
20260508051015 5 225 1.6 3.2 0.00 0.03 0.00 55 1009.4
20260508050016 5 225 1.6 3.2 0.00 0.03 0.00 56 1009.4
20260508045017 5 225 0.0 1.6 0.00 0.03 0.00 53 1009.4
20260508044016 5 206 1.6 3.2 0.00 0.03 0.00 54 1009.3
20260508043017 5 202 3.2 6.4 0.00 0.03 0.00 53 1009.2
20260508042038 6 225 1.6 3.2 0.00 0.03 0.00 53 1009.1
20260508041016 6 225 3.2 3.2 0.00 0.03 0.00 52 1009.1
20260508040818 6 225 3.2 3.2 0.00 0.03 0.03 52 1009.1
20260508035016 6 223 1.6 3.2 0.00 0.03 0.03 52 1009.1
20260508034016 6 205 3.2 4.8 0.00 0.03 0.03 52 1009.2
20260508033037 7 193 3.2 8.0 0.00 0.03 0.03 51 1009.3
20260508032324 7 135 1.6 6.4 0.00 0.03 0.03 49 1009.3
20260508031018 7 207 1.6 4.8 0.00 0.03 0.03 52 1009.3
20260508030324 7 270 1.6 4.8 0.00 0.03 0.03 50 1009.3
20260508025517 7 213 1.6 4.8 0.00 0.03 0.03 50 1009.3
20260508024914 7 225 1.6 3.2 0.00 0.03 0.03 49 1009.3
20260508024017 7 282 1.6 4.8 0.00 0.03 0.03 48 1009.3
20260508023016 7 187 1.6 4.8 0.00 0.03 0.03 49 1009.2
20260508022017 7 226 3.2 6.4 0.00 0.03 0.03 47 1009.2
20260508021016 7 217 3.2 6.4 0.00 0.03 0.03 46 1009.1
20260508020017 7 206 3.2 4.8 0.00 0.03 0.03 46 1009.0
20260508015017 8 255 3.2 8.0 0.00 0.03 0.03 45 1008.9
20260508014016 8 293 3.2 9.7 0.00 0.03 0.03 44 1008.7
20260508013017 8 309 4.8 9.7 0.00 0.03 0.03 42 1008.7
20260508012017 8 299 3.2 11.3 0.00 0.03 0.03 45 1008.6
20260508011016 8 268 3.2 8.0 0.00 0.03 0.03 45 1008.5
20260508010016 9 210 1.6 6.4 0.00 0.03 0.03 44 1008.4
20260508005016 10 263 3.2 9.7 0.00 0.03 0.03 42 1008.2
20260508004057 10 264 3.2 12.9 0.00 0.05 0.03 41 1008.0
20260508003016 10 304 4.8 12.9 0.00 0.05 0.03 37 1008.0
20260508002407 11 270 3.2 4.8 0.00 0.05 0.03 37 1007.9
20260508001537 11 303 4.8 16.1 0.00 0.05 0.03 39 1007.8
20260508001113 11 270 3.2 9.7 0.00 0.05 0.03 35 1007.7
20260508000017 11 299 3.2 6.4 0.00 0.05 0.03 35 1007.7
20260507235544 12 270 6.4 8.0 0.00 0.05 0.03 34 1007.6
20260507234016 12 316 6.4 19.3 0.00 0.05 0.03 32 1007.5
20260507233037 13 319 8.0 20.9 0.00 0.05 0.03 31 1007.5
20260507232016 14 333 6.4 16.1 0.00 0.05 0.03 31 1007.5
20260507231016 15 323 8.0 20.9 0.00 0.05 0.03 32 1007.5
20260507230017 14 318 6.4 17.7 0.00 0.05 0.03 32 1007.5
20260507225126 14 315 6.4 11.3 0.00 0.05 0.03 33 1007.5
20260507224037 14 307 8.0 20.9 0.00 0.05 0.03 33 1007.4
20260507223015 13 305 9.7 22.5 0.00 0.05 0.03 33 1007.4
20260507222016 14 321 8.0 24.1 0.00 0.05 0.03 33 1007.5
20260507221017 14 312 11.3 40.2 0.00 0.05 0.03 32 1007.6
20260507220016 14 325 11.3 30.6 0.00 0.05 0.03 33 1007.6
20260507215319 14 0 9.7 9.7 0.00 0.05 0.03 33 1007.6
20260507214036 15 331 11.3 27.4 0.00 0.05 0.03 33 1007.6
20260507213017 15 309 9.7 24.1 0.00 0.05 0.03 32 1007.5
20260507212339 16 270 11.3 16.1 0.00 0.05 0.03 32 1007.6
20260507211017 16 312 12.9 24.1 0.00 0.05 0.03 31 1007.6
20260507210016 16 324 9.7 27.4 0.00 0.05 0.03 32 1007.6
20260507205016 17 314 8.0 29.0 0.00 0.05 0.03 32 1007.7
20260507204017 17 331 12.9 35.4 0.00 0.05 0.03 31 1007.7
20260507203018 16 326 6.4 25.7 0.00 0.05 0.03 33 1007.7
20260507202016 16 317 9.7 33.8 0.00 0.05 0.03 33 1007.8
20260507201017 15 322 9.7 32.2 0.00 0.05 0.03 34 1007.9
20260507200036 16 318 12.9 32.2 0.00 0.05 0.03 34 1008.0
20260507195017 16 314 11.3 25.7 0.00 0.05 0.03 34 1008.1
20260507194018 15 332 14.5 32.2 0.00 0.05 0.03 34 1008.1
20260507193017 14 325 12.9 32.2 0.00 0.05 0.03 36 1008.3
20260507192037 15 306 11.3 29.0 0.00 0.05 0.03 36 1008.4
20260507191324 15 0 11.3 19.3 0.00 0.05 0.03 36 1008.4
20260507190016 15 317 11.3 29.0 0.00 0.05 0.03 36 1008.6
20260507185017 15 287 11.3 25.7 0.00 0.05 0.03 36 1008.7
20260507184058 15 180 9.7 27.4 0.00 0.05 0.03 36 1008.8
20260507183018 14 320 12.9 25.7 0.00 0.05 0.03 37 1008.8
20260507182017 15 336 8.0 25.7 0.00 0.08 0.03 37 1009.0
20260507181058 15 315 11.3 17.7 0.00 0.08 0.03 37 1009.0
20260507180516 15 328 14.5 33.8 0.00 0.08 0.03 36 1009.0
20260507175516 15 319 11.3 27.4 0.00 0.10 0.03 37 1009.1
20260507174517 15 320 9.7 29.0 0.00 0.13 0.03 38 1009.2
20260507173929 15 0 6.4 14.5 0.00 0.13 0.03 40 1009.2
20260507172516 15 325 6.4 20.9 0.00 0.13 0.03 39 1009.2
20260507171556 14 270 9.7 22.5 0.00 0.15 0.03 38 1009.2
20260507170517 15 320 9.7 24.1 0.00 0.18 0.03 38 1009.3
20260507165516 15 330 11.3 24.1 0.00 0.20 0.03 38 1009.4
20260507164516 15 309 9.7 29.0 0.00 0.23 0.03 38 1009.5
20260507163517 15 313 11.3 22.5 0.00 0.23 0.03 38 1009.6
20260507162516 15 335 4.8 25.7 0.00 0.25 0.03 42 1009.7
20260507161821 14 23 9.7 22.5 0.00 0.30 0.03 39 1009.8
20260507160519 15 330 8.0 27.4 0.00 0.30 0.03 41 1009.9
20260507155519 14 306 9.7 25.7 0.00 0.33 0.03 41 1009.9
20260507154539 13 325 9.7 22.5 0.00 0.33 0.03 41 1010.0
20260507153519 13 292 8.0 20.9 0.00 0.36 0.03 41 1010.1
20260507152921 13 270 8.0 17.7 0.00 0.41 0.03 40 1010.2
20260507151537 13 318 8.0 19.3 0.00 0.43 0.03 43 1010.2
20260507150819 13 315 8.0 19.3 0.00 0.43 0.03 41 1010.3
20260507145517 13 334 8.0 24.1 0.00 0.46 0.03 42 1010.3
20260507144536 13 304 4.8 24.1 0.00 0.46 0.03 43 1010.3
20260507143517 12 323 9.7 30.6 0.00 0.48 0.03 43 1010.3
20260507142517 12 322 8.0 20.9 0.00 0.51 0.03 44 1010.4
20260507141516 12 312 9.7 29.0 0.00 0.53 0.03 44 1010.5
20260507140844 11 338 8.0 9.7 0.03 0.58 0.03 48 1010.5
20260507135515 11 326 11.3 24.1 0.03 0.61 0.03 47 1010.6
20260507134840 11 315 4.8 4.8 0.03 0.61 0.03 52 1010.7
20260507134016 11 322 4.8 17.7 0.03 0.61 0.03 51 1010.7
20260507133017 11 337 8.0 17.7 0.03 0.64 0.03 52 1010.9